{"data":{"norad_id":63285,"epoch":"2026-05-25T01:16:53.937120Z","epoch_age_seconds":80473,"freshness":"FRESH","line1":"1 63285U 25053W   26145.05340205  .00013089  00000+0  48397-3 0  9990","line2":"2 63285  42.9982 170.3999 0000910 303.2734  56.8030 15.27602841 67876","mean_motion":15.27602841,"eccentricity":9.1e-5,"inclination_deg":42.9982,"raan_deg":170.3999,"arg_perigee_deg":303.2734,"mean_anomaly_deg":56.803,"bstar":0.00048397,"rev_number":6787,"period_min":94.265339219803,"perigee_km":482.3563410099,"apogee_km":483.6050644318,"semimajor_km":6861.1177027208,"source":"CELESTRAK","updated_at":"2026-05-25T13:38:19.928522Z"}}